OneWeb SL0330

operational
NORAD ID: 49108 Int'l Des: 2021-075 Owner: ONEWEBN Country: UK Constellation: oneweb
LEOCIRCULARPOLARONEWEB_TYPE

关于 OneWeb SL0330

正在加载描述...

实时位置

正在加载3D地球...

即将过境

高度历史

Altitude vs Time

uPlot chart will show altitude changes over time

两行轨道根数

1 49108U 21075AK 25305.52604907 .00000131 00000-0 30492-3 0 9991
2 49108 87.9124 51.1531 0001882 93.7364 266.3983 13.17648613203644
Epoch: Nov 1, 2025 • Age: 25 hours

当前状态

高度 1196.9 km
速度 7.26 km/s
星下点 -1.91°S, 9.6°W
发射日期 Aug 21, 2021
运行时间 4.1 years
类型 internet

技术详情

分类 Payload
质量 148.00 kg
干质量 140.00 kg
总质量 148.00 kg
长度 1.30 m
直径 1.00 m
跨度 5.00 m
形状 Trapezoid+2 pan
制造商 ONEWUS
平台类型 ARROW
阶段状态 In Orbit
所有者/国家 ONEWEBN/UK

大型星座

Loading constellations...